| time (UTC) | temp F | wind direction | speed MPH | gust MPH | rain 1hr in | rain 24hr in | rain mn in | humidity % | barometer mb |
| 20260506122956 | 50 | 40 | 3.0 | 5.0 | 0.00 | 0.00 | 0.00 | 57 | 1018.8 |
| 20260506122452 | 50 | 314 | 1.0 | 5.0 | 0.00 | 0.00 | 0.00 | 64 | 1018.8 |
| 20260506122206 | 50 | 105 | 1.0 | 8.0 | 0.00 | 0.00 | 0.00 | 61 | 1018.9 |
| 20260506121447 | 50 | 351 | 2.0 | 8.0 | 0.00 | 0.00 | 0.00 | 61 | 1018.9 |
| 20260506121203 | 52 | 23 | 4.0 | 10.0 | 0.00 | 0.00 | 0.00 | 62 | 1018.9 |
| 20260506120440 | 51 | 46 | 5.0 | 10.0 | 0.00 | 0.00 | 0.00 | 60 | 1018.9 |
| 20260506115939 | 51 | 1 | 4.0 | 6.0 | 0.00 | 0.00 | 0.00 | 56 | 1018.9 |
| 20260506115435 | 51 | 1 | 4.0 | 10.0 | 0.00 | 0.00 | 0.00 | 57 | 1019.0 |
| 20260506115206 | 51 | 28 | 5.0 | 10.0 | 0.00 | 0.00 | 0.00 | 56 | 1019.0 |
| 20260506114651 | 51 | 20 | 3.0 | 6.0 | 0.00 | 0.00 | 0.00 | 62 | 1019.0 |
| 20260506114156 | 50 | 1 | 3.0 | 8.0 | 0.00 | 0.00 | 0.00 | 62 | 1019.2 |
| 20260506113427 | 48 | 314 | 1.0 | 8.0 | 0.00 | 0.00 | 0.00 | 67 | 1019.1 |
| 20260506112925 | 47 | 37 | 4.0 | 12.0 | 0.00 | 0.00 | 0.00 | 66 | 1019.2 |
| 20260506112423 | 47 | 1 | 7.0 | 12.0 | 0.00 | 0.00 | 0.00 | 67 | 1019.2 |
| 20260506111918 | 48 | 4 | 6.0 | 10.0 | 0.00 | 0.00 | 0.00 | 65 | 1019.2 |
| 20260506111643 | 49 | 46 | 2.0 | 9.0 | 0.00 | 0.00 | 0.00 | 64 | 1019.3 |
| 20260506111134 | 49 | 6 | 2.0 | 11.0 | 0.00 | 0.00 | 0.00 | 61 | 1019.3 |
| 20260506110416 | 49 | 15 | 2.0 | 11.0 | 0.00 | 0.00 | 0.00 | 67 | 1019.3 |
| 20260506105911 | 49 | 350 | 6.0 | 9.0 | 0.00 | 0.00 | 0.00 | 62 | 1019.3 |
| 20260506105407 | 50 | 6 | 5.0 | 10.0 | 0.00 | 0.00 | 0.00 | 62 | 1019.4 |
| 20260506104907 | 49 | 20 | 5.0 | 10.0 | 0.00 | 0.00 | 0.00 | 60 | 1019.5 |
| 20260506104402 | 49 | 1 | 2.0 | 8.0 | 0.00 | 0.00 | 0.00 | 61 | 1019.4 |
| 20260506103853 | 49 | 28 | 4.0 | 9.0 | 0.00 | 0.00 | 0.00 | 63 | 1019.4 |
| 20260506103839 | 48 | 351 | 4.0 | 9.0 | 0.00 | 0.00 | 0.00 | 62 | 1019.4 |
| 20260506102845 | 48 | 9 | 3.0 | 9.0 | 0.00 | 0.00 | 0.00 | 61 | 1019.5 |
| 20260506102607 | 47 | 314 | 4.0 | 9.0 | 0.00 | 0.00 | 0.00 | 62 | 1019.5 |
| 20260506101846 | 48 | 8 | 4.0 | 8.0 | 0.00 | 0.00 | 0.00 | 64 | 1019.5 |
| 20260506101342 | 48 | 15 | 4.0 | 8.0 | 0.00 | 0.00 | 0.00 | 60 | 1019.5 |
| 20260506100837 | 49 | 344 | 3.0 | 6.0 | 0.00 | 0.00 | 0.00 | 62 | 1019.5 |
| 20260506100332 | 49 | 46 | 3.0 | 8.0 | 0.00 | 0.00 | 0.00 | 64 | 1019.5 |
| 20260506100045 | 49 | 1 | 2.0 | 8.0 | 0.00 | 0.00 | 0.00 | 63 | 1019.6 |
| 20260506095324 | 48 | 40 | 2.0 | 4.0 | 0.00 | 0.00 | 0.00 | 67 | 1019.6 |
| 20260506094824 | 48 | 56 | 3.0 | 5.0 | 0.00 | 0.00 | 0.00 | 70 | 1019.7 |
| 20260506094325 | 48 | 15 | 2.0 | 6.0 | 0.00 | 0.00 | 0.00 | 70 | 1019.7 |
| 20260506093821 | 47 | 20 | 2.0 | 6.0 | 0.00 | 0.00 | 0.00 | 70 | 1019.7 |
| 20260506093316 | 45 | 240 | 2.0 | 9.0 | 0.00 | 0.00 | 0.00 | 71 | 1019.7 |
| 20260506092811 | 45 | 13 | 3.0 | 10.0 | 0.00 | 0.00 | 0.00 | 73 | 1019.7 |
| 20260506092307 | 45 | 13 | 5.0 | 10.0 | 0.00 | 0.00 | 0.00 | 72 | 1019.8 |
| 20260506091803 | 45 | 51 | 6.0 | 10.0 | 0.00 | 0.00 | 0.00 | 73 | 1019.9 |
| 20260506091258 | 45 | 46 | 4.0 | 10.0 | 0.00 | 0.00 | 0.00 | 73 | 1019.9 |
| 20260506090758 | 45 | 44 | 4.0 | 12.0 | 0.00 | 0.00 | 0.00 | 74 | 1019.9 |
| 20260506090254 | 45 | 284 | 3.0 | 12.0 | 0.00 | 0.00 | 0.00 | 75 | 1019.9 |
| 20260506085755 | 44 | 65 | 4.0 | 9.0 | 0.00 | 0.00 | 0.00 | 77 | 1020.0 |
| 20260506085251 | 44 | 15 | 3.0 | 6.0 | 0.00 | 0.00 | 0.00 | 79 | 1020.0 |
| 20260506084751 | 44 | 25 | 2.0 | 9.0 | 0.00 | 0.00 | 0.00 | 80 | 1020.1 |
| 20260506084247 | 44 | 18 | 4.0 | 9.0 | 0.00 | 0.00 | 0.00 | 80 | 1020.2 |
| 20260506083742 | 44 | 20 | 2.0 | 7.0 | 0.00 | 0.00 | 0.00 | 81 | 1020.1 |
| 20260506083244 | 44 | 356 | 4.0 | 9.0 | 0.00 | 0.00 | 0.00 | 81 | 1020.1 |
| 20260506082739 | 43 | 1 | 3.0 | 9.0 | 0.00 | 0.00 | 0.00 | 81 | 1020.1 |
| 20260506082239 | 43 | 39 | 2.0 | 6.0 | 0.00 | 0.00 | 0.00 | 82 | 1020.1 |
| 20260506081734 | 42 | 46 | 3.0 | 6.0 | 0.00 | 0.00 | 0.00 | 83 | 1020.2 |
| 20260506081235 | 42 | 37 | 2.0 | 6.0 | 0.00 | 0.00 | 0.00 | 84 | 1020.1 |
| 20260506080951 | 42 | 30 | 3.0 | 5.0 | 0.00 | 0.00 | 0.00 | 85 | 1020.1 |
| 20260506080230 | 41 | 21 | 3.0 | 5.0 | 0.00 | 0.00 | 0.00 | 87 | 1020.0 |
| 20260506073219 | 38 | 152 | 1.0 | 4.0 | 0.00 | 0.00 | 0.00 | 91 | 1020.1 |
| 20260506072714 | 38 | 46 | 1.0 | 2.0 | 0.00 | 0.00 | 0.00 | 91 | 1020.1 |
| 20260506072216 | 37 | 234 | 1.0 | 2.0 | 0.00 | 0.00 | 0.00 | 92 | 1020.1 |
| 20260506071710 | 37 | 46 | 1.0 | 2.0 | 0.00 | 0.00 | 0.00 | 92 | 1020.1 |
| 20260506071211 | 37 | 35 | 2.0 | 2.0 | 0.00 | 0.00 | 0.00 | 92 | 1020.1 |
| 20260506070706 | 37 | 53 | 0.0 | 2.0 | 0.00 | 0.00 | 0.00 | 92 | 1020.1 |
| 20260506070436 | 36 | 46 | 1.0 | 2.0 | 0.00 | 0.00 | 0.00 | 92 | 1020.0 |
| 20260506062136 | 34 | 59 | 1.0 | 2.0 | 0.00 | 0.00 | 0.00 | 93 | 1020.0 |
| 20260506061635 | 34 | 46 | 1.0 | 2.0 | 0.00 | 0.00 | 0.00 | 93 | 1020.0 |
| 20260506061137 | 34 | 63 | 0.0 | 2.0 | 0.00 | 0.00 | 0.00 | 93 | 1020.0 |
| 20260506060632 | 34 | 89 | 0.0 | 2.0 | 0.00 | 0.00 | 0.00 | 93 | 1019.9 |
| 20260506060128 | 33 | 89 | 0.0 | 2.0 | 0.00 | 0.00 | 0.00 | 93 | 1020.1 |
| 20260506051053 | 31 | 89 | 1.0 | 2.0 | 0.00 | 0.00 | 0.00 | 92 | 1019.9 |
| 20260506050601 | 31 | 269 | 1.0 | 2.0 | 0.00 | 0.00 | 0.00 | 92 | 1019.9 |
| 20260506045046 | 31 | 108 | 1.0 | 2.0 | 0.00 | 0.00 | 0.00 | 92 | 1019.9 |
| 20260506044541 | 31 | 295 | 0.0 | 1.0 | 0.00 | 0.00 | 0.00 | 92 | 1020.0 |
| 20260506044044 | 31 | 46 | 0.0 | 2.0 | 0.00 | 0.00 | 0.00 | 92 | 1020.0 |
| 20260506043539 | 31 | 105 | 1.0 | 2.0 | 0.00 | 0.00 | 0.00 | 92 | 1019.9 |
| 20260506043029 | 31 | 178 | 1.0 | 2.0 | 0.00 | 0.00 | 0.00 | 92 | 1019.9 |
| 20260506042749 | 31 | 46 | 1.0 | 2.0 | 0.00 | 0.00 | 0.00 | 92 | 1019.9 |
| 20260506042028 | 31 | 178 | 1.0 | 2.0 | 0.00 | 0.00 | 0.00 | 92 | 1020.0 |
| 20260506041747 | 31 | 152 | 1.0 | 2.0 | 0.00 | 0.00 | 0.00 | 92 | 1020.0 |
| 20260506041020 | 31 | 135 | 1.0 | 2.0 | 0.00 | 0.00 | 0.00 | 92 | 1020.0 |
| 20260506040516 | 32 | 89 | 1.0 | 2.0 | 0.00 | 0.00 | 0.00 | 92 | 1020.0 |
| 20260506040011 | 32 | 164 | 1.0 | 2.0 | 0.00 | 0.00 | 0.00 | 92 | 1020.0 |
| 20260506035512 | 31 | 206 | 1.0 | 3.0 | 0.00 | 0.00 | 0.00 | 92 | 1020.0 |
| 20260506035007 | 31 | 1 | 1.0 | 3.0 | 0.00 | 0.00 | 0.00 | 92 | 1019.9 |
| 20260506034726 | 32 | 124 | 1.0 | 3.0 | 0.00 | 0.00 | 0.00 | 91 | 1019.9 |
| 20260506034005 | 31 | 135 | 2.0 | 3.0 | 0.00 | 0.00 | 0.00 | 92 | 1019.9 |
| 20260506033459 | 31 | 145 | 2.0 | 3.0 | 0.00 | 0.00 | 0.00 | 91 | 1019.9 |
| 20260506032959 | 32 | 124 | 1.0 | 3.0 | 0.00 | 0.00 | 0.00 | 91 | 1019.9 |
| 20260506032500 | 32 | 135 | 2.0 | 3.0 | 0.00 | 0.00 | 0.00 | 91 | 1020.0 |
| 20260506031957 | 32 | 102 | 2.0 | 3.0 | 0.00 | 0.00 | 0.00 | 91 | 1020.1 |
| 20260506031453 | 32 | 108 | 1.0 | 3.0 | 0.00 | 0.00 | 0.00 | 91 | 1020.1 |
| 20260506030952 | 32 | 129 | 2.0 | 3.0 | 0.00 | 0.00 | 0.00 | 91 | 1020.1 |
| 20260506030712 | 32 | 89 | 1.0 | 2.0 | 0.00 | 0.00 | 0.00 | 91 | 1020.2 |
| 20260506030205 | 32 | 46 | 1.0 | 2.0 | 0.00 | 0.00 | 0.00 | 91 | 1020.2 |
| 20260506025443 | 32 | 117 | 1.0 | 2.0 | 0.00 | 0.00 | 0.00 | 91 | 1020.2 |
| 20260506024940 | 32 | 63 | 1.0 | 3.0 | 0.00 | 0.00 | 0.00 | 91 | 1020.2 |
| 20260506024700 | 33 | 160 | 2.0 | 3.0 | 0.00 | 0.00 | 0.00 | 91 | 1020.2 |
| 20260506023936 | 33 | 117 | 2.0 | 3.0 | 0.00 | 0.00 | 0.00 | 91 | 1020.3 |
| 20260506023652 | 33 | 108 | 1.0 | 3.0 | 0.00 | 0.00 | 0.00 | 91 | 1020.2 |
| 20260506022932 | 33 | 135 | 2.0 | 3.0 | 0.00 | 0.00 | 0.00 | 90 | 1020.2 |
| 20260506022654 | 33 | 135 | 2.0 | 2.0 | 0.00 | 0.00 | 0.00 | 90 | 1020.2 |
| 20260506022144 | 33 | 314 | 0.0 | 2.0 | 0.00 | 0.00 | 0.00 | 90 | 1020.2 |
| 20260506021423 | 33 | 46 | 1.0 | 2.0 | 0.00 | 0.00 | 0.00 | 90 | 1020.2 |
| 20260506020924 | 34 | 89 | 1.0 | 2.0 | 0.00 | 0.00 | 0.00 | 90 | 1020.3 |
| 20260506020419 | 34 | 121 | 1.0 | 2.0 | 0.00 | 0.00 | 0.00 | 90 | 1020.4 |
| 20260506020142 | 34 | 152 | 1.0 | 2.0 | 0.00 | 0.00 | 0.00 | 90 | 1020.4 |
| 20260506015640 | 34 | 135 | 0.0 | 2.0 | 0.00 | 0.00 | 0.00 | 90 | 1020.4 |
| 20260506014911 | 34 | 135 | 1.0 | 2.0 | 0.00 | 0.00 | 0.00 | 90 | 1020.3 |
| 20260506014413 | 34 | 89 | 0.0 | 1.0 | 0.00 | 0.00 | 0.00 | 90 | 1020.2 |
| 20260506013907 | 34 | 89 | 0.0 | 3.0 | 0.00 | 0.00 | 0.00 | 90 | 1020.3 |
| 20260506013408 | 35 | 89 | 2.0 | 3.0 | 0.00 | 0.00 | 0.00 | 90 | 1020.4 |
| 20260506012904 | 35 | 135 | 2.0 | 3.0 | 0.00 | 0.00 | 0.00 | 89 | 1020.4 |
| 20260506012359 | 35 | 206 | 1.0 | 3.0 | 0.00 | 0.00 | 0.00 | 89 | 1020.4 |
| 20260506011856 | 35 | 135 | 2.0 | 3.0 | 0.00 | 0.00 | 0.00 | 89 | 1020.4 |
| 20260506011350 | 35 | 160 | 1.0 | 2.0 | 0.00 | 0.00 | 0.00 | 89 | 1020.4 |
| 20260506010847 | 36 | 46 | 1.0 | 2.0 | 0.00 | 0.00 | 0.00 | 89 | 1020.4 |
| 20260506010341 | 36 | 178 | 1.0 | 2.0 | 0.00 | 0.00 | 0.00 | 89 | 1020.4 |
| 20260506005843 | 36 | 178 | 1.0 | 2.0 | 0.00 | 0.00 | 0.00 | 89 | 1020.4 |
| 20260506005338 | 36 | 1 | 1.0 | 1.0 | 0.00 | 0.00 | 0.00 | 89 | 1020.3 |
| 20260506004838 | 36 | 46 | 0.0 | 2.0 | 0.00 | 0.00 | 0.00 | 88 | 1020.4 |
| 20260506004333 | 36 | 152 | 1.0 | 2.0 | 0.00 | 0.00 | 0.00 | 88 | 1020.3 |
| 20260506004057 | 36 | 135 | 1.0 | 2.0 | 0.00 | 0.00 | 0.00 | 88 | 1020.3 |
| 20260506003330 | 37 | 135 | 1.0 | 2.0 | 0.00 | 0.00 | 0.00 | 88 | 1020.2 |
| 20260506002825 | 37 | 89 | 1.0 | 2.0 | 0.00 | 0.00 | 0.00 | 88 | 1020.4 |
| 20260506002326 | 37 | 117 | 1.0 | 2.0 | 0.00 | 0.00 | 0.00 | 88 | 1020.3 |
| 20260506001816 | 37 | 142 | 1.0 | 2.0 | 0.00 | 0.00 | 0.00 | 87 | 1020.3 |
| 20260506001543 | 37 | 89 | 1.0 | 2.0 | 0.00 | 0.00 | 0.00 | 87 | 1020.4 |
| 20260506000813 | 37 | 89 | 1.0 | 2.0 | 0.00 | 0.00 | 0.00 | 87 | 1020.3 |
| 20260506000309 | 38 | 89 | 1.0 | 2.0 | 0.00 | 0.00 | 0.00 | 87 | 1020.4 |
| 20260505235804 | 38 | 1 | 0.0 | 1.0 | 0.00 | 0.00 | 0.00 | 87 | 1020.3 |
| 20260505235258 | 38 | 89 | 0.0 | 1.0 | 0.00 | 0.00 | 0.00 | 87 | 1020.4 |
| 20260505234754 | 38 | 1 | 0.0 | 3.0 | 0.00 | 0.00 | 0.00 | 86 | 1020.5 |
| 20260505234250 | 38 | 135 | 1.0 | 3.0 | 0.00 | 0.00 | 0.00 | 86 | 1020.4 |
| 20260505233745 | 39 | 135 | 1.0 | 2.0 | 0.00 | 0.00 | 0.00 | 86 | 1020.5 |
| 20260505233246 | 39 | 223 | 0.0 | 2.0 | 0.00 | 0.00 | 0.00 | 86 | 1020.5 |
| 20260505232741 | 39 | 127 | 1.0 | 2.0 | 0.00 | 0.00 | 0.00 | 86 | 1020.4 |
| 20260505232241 | 40 | 46 | 0.0 | 2.0 | 0.00 | 0.00 | 0.00 | 85 | 1020.6 |
| 20260505231737 | 40 | 135 | 0.0 | 2.0 | 0.00 | 0.00 | 0.00 | 85 | 1020.6 |
| 20260505231233 | 40 | 63 | 1.0 | 2.0 | 0.00 | 0.00 | 0.00 | 85 | 1020.6 |
| 20260505230947 | 40 | 56 | 1.0 | 2.0 | 0.00 | 0.00 | 0.00 | 84 | 1020.7 |
| 20260505230224 | 40 | 89 | 0.0 | 2.0 | 0.00 | 0.00 | 0.00 | 84 | 1020.6 |
| 20260505225725 | 40 | 117 | 1.0 | 1.0 | 0.00 | 0.00 | 0.00 | 84 | 1020.5 |
| 20260505225442 | 40 | 46 | 0.0 | 2.0 | 0.00 | 0.00 | 0.00 | 83 | 1020.6 |
| 20260505224720 | 41 | 46 | 0.0 | 2.0 | 0.00 | 0.00 | 0.00 | 83 | 1020.6 |
| 20260505224216 | 41 | 178 | 1.0 | 2.0 | 0.00 | 0.00 | 0.00 | 83 | 1020.7 |
| 20260505223712 | 41 | 135 | 1.0 | 2.0 | 0.00 | 0.00 | 0.00 | 82 | 1020.7 |
| 20260505223207 | 41 | 46 | 1.0 | 2.0 | 0.00 | 0.00 | 0.00 | 82 | 1020.6 |
| 20260505222707 | 41 | 35 | 1.0 | 3.0 | 0.00 | 0.00 | 0.00 | 82 | 1020.7 |
| 20260505222203 | 42 | 46 | 1.0 | 3.0 | 0.00 | 0.00 | 0.00 | 82 | 1020.7 |
| 20260505221705 | 42 | 58 | 1.0 | 3.0 | 0.00 | 0.00 | 0.00 | 82 | 1020.7 |
| 20260505221159 | 42 | 46 | 2.0 | 4.0 | 0.00 | 0.00 | 0.00 | 81 | 1020.8 |
| 20260505220918 | 42 | 51 | 2.0 | 4.0 | 0.00 | 0.00 | 0.00 | 80 | 1020.6 |
| 20260505220151 | 42 | 46 | 1.0 | 3.0 | 0.00 | 0.00 | 0.00 | 80 | 1020.6 |
| 20260505215646 | 42 | 53 | 2.0 | 4.0 | 0.00 | 0.00 | 0.00 | 80 | 1020.6 |
| 20260505215409 | 42 | 41 | 3.0 | 4.0 | 0.00 | 0.00 | 0.00 | 80 | 1020.5 |
| 20260505214913 | 42 | 28 | 1.0 | 4.0 | 0.00 | 0.00 | 0.00 | 80 | 1020.5 |
| 20260505214138 | 42 | 32 | 3.0 | 4.0 | 0.00 | 0.00 | 0.00 | 79 | 1020.6 |
| 20260505213633 | 42 | 39 | 2.0 | 4.0 | 0.00 | 0.00 | 0.00 | 79 | 1020.5 |
| 20260505213129 | 42 | 68 | 2.0 | 5.0 | 0.00 | 0.00 | 0.00 | 79 | 1020.6 |
| 20260505212631 | 42 | 46 | 2.0 | 5.0 | 0.00 | 0.00 | 0.00 | 79 | 1020.7 |
| 20260505212126 | 43 | 63 | 2.0 | 5.0 | 0.00 | 0.00 | 0.00 | 79 | 1020.6 |
| 20260505211847 | 43 | 56 | 3.0 | 5.0 | 0.00 | 0.00 | 0.00 | 79 | 1020.7 |
| 20260505211116 | 43 | 53 | 1.0 | 4.0 | 0.00 | 0.00 | 0.00 | 79 | 1020.6 |
| 20260505210836 | 43 | 28 | 1.0 | 4.0 | 0.00 | 0.00 | 0.00 | 78 | 1020.6 |
| 20260505210107 | 43 | 46 | 2.0 | 4.0 | 0.00 | 0.00 | 0.00 | 78 | 1020.5 |
| 20260505205608 | 43 | 28 | 2.0 | 5.0 | 0.00 | 0.00 | 0.00 | 78 | 1020.6 |
| 20260505205105 | 43 | 63 | 2.0 | 5.0 | 0.00 | 0.00 | 0.00 | 78 | 1020.6 |
| 20260505205053 | 43 | 49 | 4.0 | 5.0 | 0.00 | 0.00 | 0.00 | 77 | 1020.7 |
| 20260505204059 | 43 | 46 | 2.0 | 4.0 | 0.00 | 0.00 | 0.00 | 77 | 1020.6 |
| 20260505203826 | 43 | 58 | 3.0 | 6.0 | 0.00 | 0.00 | 0.00 | 77 | 1020.7 |
| 20260505203055 | 43 | 8 | 3.0 | 6.0 | 0.00 | 0.00 | 0.00 | 77 | 1020.7 |
| 20260505202557 | 43 | 63 | 2.0 | 4.0 | 0.00 | 0.00 | 0.00 | 77 | 1020.7 |
| 20260505202053 | 43 | 25 | 2.0 | 5.0 | 0.00 | 0.00 | 0.00 | 76 | 1020.7 |
| 20260505201546 | 44 | 53 | 2.0 | 6.0 | 0.00 | 0.00 | 0.00 | 77 | 1020.7 |
| 20260505201042 | 44 | 58 | 2.0 | 6.0 | 0.00 | 0.00 | 0.00 | 77 | 1020.6 |
| 20260505200538 | 44 | 25 | 2.0 | 5.0 | 0.00 | 0.00 | 0.00 | 76 | 1020.6 |
| 20260505200302 | 44 | 46 | 3.0 | 6.0 | 0.00 | 0.00 | 0.00 | 76 | 1020.4 |
| 20260505195530 | 44 | 54 | 4.0 | 7.0 | 0.00 | 0.00 | 0.00 | 75 | 1020.5 |
| 20260505195029 | 44 | 60 | 2.0 | 7.0 | 0.00 | 0.00 | 0.00 | 75 | 1020.5 |
| 20260505194526 | 44 | 47 | 3.0 | 6.0 | 0.00 | 0.00 | 0.00 | 75 | 1020.5 |
| 20260505194025 | 44 | 44 | 3.0 | 6.0 | 0.00 | 0.00 | 0.00 | 75 | 1020.6 |
| 20260505193522 | 44 | 46 | 3.0 | 7.0 | 0.00 | 0.00 | 0.00 | 75 | 1020.6 |
| 20260505193240 | 44 | 28 | 2.0 | 9.0 | 0.00 | 0.00 | 0.00 | 74 | 1020.5 |
| 20260505192517 | 44 | 18 | 4.0 | 10.0 | 0.00 | 0.00 | 0.00 | 74 | 1020.4 |
| 20260505192013 | 44 | 63 | 5.0 | 10.0 | 0.00 | 0.00 | 0.00 | 73 | 1020.2 |
| 20260505191509 | 44 | 18 | 5.0 | 13.0 | 0.00 | 0.00 | 0.00 | 73 | 1020.2 |
| 20260505191009 | 44 | 41 | 6.0 | 13.0 | 0.00 | 0.00 | 0.00 | 73 | 1020.2 |
| 20260505190504 | 45 | 15 | 6.0 | 11.0 | 0.00 | 0.00 | 0.00 | 73 | 1020.2 |
| 20260505190220 | 45 | 25 | 5.0 | 10.0 | 0.00 | 0.00 | 0.00 | 73 | 1020.2 |
| 20260505185500 | 45 | 14 | 6.0 | 10.0 | 0.00 | 0.00 | 0.00 | 73 | 1020.2 |
| 20260505185001 | 45 | 23 | 4.0 | 11.0 | 0.00 | 0.00 | 0.00 | 73 | 1020.2 |
| 20260505184456 | 45 | 6 | 6.0 | 13.0 | 0.00 | 0.00 | 0.00 | 73 | 1020.1 |
| 20260505184218 | 45 | 58 | 6.0 | 13.0 | 0.00 | 0.00 | 0.00 | 73 | 1020.2 |
| 20260505183715 | 45 | 6 | 6.0 | 11.0 | 0.00 | 0.00 | 0.00 | 73 | 1020.2 |
| 20260505182948 | 45 | 32 | 5.0 | 11.0 | 0.00 | 0.00 | 0.00 | 73 | 1020.2 |
| 20260505182444 | 45 | 350 | 6.0 | 12.0 | 0.00 | 0.00 | 0.00 | 73 | 1020.2 |
| 20260505182207 | 45 | 44 | 6.0 | 12.0 | 0.00 | 0.00 | 0.00 | 74 | 1020.0 |
| 20260505181445 | 45 | 349 | 4.0 | 13.0 | 0.00 | 0.00 | 0.00 | 74 | 1020.2 |
| 20260505180940 | 45 | 1 | 7.0 | 13.0 | 0.00 | 0.00 | 0.00 | 73 | 1020.1 |
| 20260505180701 | 45 | 21 | 6.0 | 16.0 | 0.00 | 0.00 | 0.00 | 74 | 1020.1 |
| 20260505175938 | 45 | 356 | 8.0 | 17.0 | 0.00 | 0.00 | 0.00 | 74 | 1020.0 |
| 20260505175437 | 46 | 13 | 9.0 | 17.0 | 0.00 | 0.00 | 0.00 | 76 | 1019.9 |
| 20260505174932 | 46 | 20 | 7.0 | 16.0 | 0.00 | 0.00 | 0.00 | 76 | 1020.0 |
| 20260505174433 | 46 | 1 | 6.0 | 12.0 | 0.00 | 0.00 | 0.00 | 77 | 1020.0 |
| 20260505173928 | 46 | 1 | 6.0 | 12.0 | 0.00 | 0.00 | 0.00 | 79 | 1020.0 |
| 20260505173645 | 46 | 23 | 4.0 | 12.0 | 0.00 | 0.00 | 0.00 | 79 | 1020.1 |
| 20260505172920 | 46 | 1 | 6.0 | 12.0 | 0.00 | 0.00 | 0.00 | 79 | 1020.2 |
| 20260505172646 | 46 | 11 | 7.0 | 13.0 | 0.00 | 0.00 | 0.00 | 79 | 1020.1 |
| 20260505171915 | 46 | 37 | 7.0 | 13.0 | 0.00 | 0.00 | 0.00 | 79 | 1020.1 |
| 20260505171633 | 46 | 4 | 6.0 | 13.0 | 0.00 | 0.00 | 0.00 | 78 | 1020.1 |
| 20260505170912 | 46 | 25 | 5.0 | 13.0 | 0.00 | 0.00 | 0.00 | 78 | 1020.2 |
| 20260505170412 | 46 | 1 | 5.0 | 14.0 | 0.00 | 0.00 | 0.00 | 78 | 1020.2 |
| 20260505170131 | 46 | 18 | 6.0 | 14.0 | 0.00 | 0.00 | 0.00 | 77 | 1020.1 |
| 20260505165409 | 46 | 1 | 6.0 | 13.0 | 0.00 | 0.00 | 0.00 | 77 | 1020.0 |
| 20260505165128 | 46 | 11 | 6.0 | 12.0 | 0.00 | 0.00 | 0.00 | 79 | 1020.1 |
| 20260505164405 | 46 | 21 | 6.0 | 13.0 | 0.00 | 0.00 | 0.00 | 78 | 1020.0 |
| 20260505163900 | 46 | 32 | 7.0 | 14.0 | 0.00 | 0.00 | 0.00 | 78 | 1020.0 |
| 20260505163401 | 46 | 21 | 8.0 | 14.0 | 0.00 | 0.00 | 0.00 | 78 | 1020.1 |
| 20260505162856 | 46 | 16 | 6.0 | 12.0 | 0.00 | 0.00 | 0.00 | 79 | 1020.0 |
| 20260505162352 | 46 | 11 | 6.0 | 14.0 | 0.00 | 0.00 | 0.00 | 79 | 1020.0 |
| 20260505161852 | 46 | 39 | 8.0 | 14.0 | 0.00 | 0.00 | 0.00 | 79 | 1020.1 |
| 20260505161348 | 46 | 6 | 6.0 | 12.0 | 0.00 | 0.00 | 0.00 | 79 | 1020.0 |
| 20260505160843 | 46 | 20 | 6.0 | 12.0 | 0.00 | 0.00 | 0.00 | 79 | 1020.0 |
| 20260505160339 | 46 | 4 | 6.0 | 12.0 | 0.00 | 0.00 | 0.00 | 79 | 1019.9 |
| 20260505153322 | 46 | 18 | 8.0 | 14.0 | 0.00 | 0.00 | 0.00 | 80 | 1019.9 |
| 20260505152819 | 46 | 18 | 7.0 | 14.0 | 0.00 | 0.00 | 0.00 | 81 | 1020.0 |
| 20260505152314 | 46 | 13 | 7.0 | 12.0 | 0.00 | 0.00 | 0.00 | 82 | 1019.9 |
| 20260505151813 | 46 | 350 | 5.0 | 9.0 | 0.00 | 0.00 | 0.00 | 83 | 1020.0 |
| 20260505151309 | 45 | 6 | 4.0 | 10.0 | 0.00 | 0.00 | 0.00 | 83 | 1019.9 |
| 20260505150809 | 46 | 25 | 5.0 | 12.0 | 0.00 | 0.00 | 0.00 | 82 | 1020.0 |
| 20260505150305 | 46 | 16 | 7.0 | 16.0 | 0.00 | 0.00 | 0.00 | 81 | 1020.1 |
| 20260505140241 | 47 | 4 | 6.0 | 13.0 | 0.00 | 0.00 | 0.00 | 80 | 1019.7 |
| 20260505130213 | 46 | 13 | 7.0 | 15.0 | 0.00 | 0.00 | 0.00 | 80 | 1019.6 |
| 20260505124709 | 47 | 333 | 10.0 | 17.0 | 0.00 | 0.00 | 0.00 | 80 | 1019.4 |
| 20260505124652 | 46 | 8 | 9.0 | 18.0 | 0.00 | 0.00 | 0.00 | 80 | 1019.4 |
| 20260505123705 | 47 | 6 | 10.0 | 18.0 | 0.00 | 0.00 | 0.00 | 81 | 1019.4 |
| 20260505123201 | 47 | 342 | 9.0 | 19.0 | 0.00 | 0.00 | 0.00 | 82 | 1019.2 |